This is the latest recevied weather packets stored in our database for station/object KD8NVS-13. If no packets are shown the sender has not sent any weather packets the latest 10 day(s).
| Time | Temp. | Humidity | Pressure | Rain* | Wind** | Luminosity | Snow |
|---|---|---|---|---|---|---|---|
| 1777469265 | 13.89° C | 96% | 1000.1 hPa | 0 mm | - | 64 W/m² | - |
| 1777468955 | 13.89° C | 96% | 1000.1 hPa | 0 mm | - | 91 W/m² | - |
| 1777468652 | 13.89° C | 96% | 1000.1 hPa | 0 mm | - | 74 W/m² | - |
| 1777468348 | 13.89° C | 96% | 1000.5 hPa | 0 mm | - | 82 W/m² | - |
| 1777468044 | 13.33° C | 96% | 1000.5 hPa | 0 mm | - | 112 W/m² | - |
| 1777467741 | 13.33° C | 97% | 1000.5 hPa | 0 mm | - | 94 W/m² | - |
| 1777467436 | 13.33° C | 97% | 1000.8 hPa | 0 mm | - | 76 W/m² | - |
| 1777467131 | 13.33° C | 97% | 1000.8 hPa | 0 mm | - | 45 W/m² | - |
| 1777466829 | 13.33° C | 97% | 1000.5 hPa | 0 mm | - | 26 W/m² | - |
| 1777466527 | 13.33° C | 97% | 1000.8 hPa | 0 mm | - | 27 W/m² | - |
| 1777466223 | 13.33° C | 97% | 1000.5 hPa | 0 mm | - | 31 W/m² | - |
| 1777465919 | 13.33° C | 97% | 1000.1 hPa | 0 mm | - | 45 W/m² | - |
| 1777465615 | 13.89° C | 97% | 1000.1 hPa | 0 mm | - | 75 W/m² | - |
| 1777465311 | 13.33° C | 97% | 1000.1 hPa | 0 mm | - | 76 W/m² | - |
| 1777465004 | 13.33° C | 97% | 1000.1 hPa | 0 mm | - | 65 W/m² | - |
| 1777464700 | 13.33° C | 97% | 1000.1 hPa | 0 mm | - | 60 W/m² | - |
| 1777464397 | 13.33° C | 97% | 1000.1 hPa | 0 mm | - | 69 W/m² | - |
| 1777464092 | 13.33° C | 97% | 1000.1 hPa | 0 mm | - | 32 W/m² | - |
| 1777463786 | 13.33° C | 97% | 1000.1 hPa | 0 mm | - | 16 W/m² | - |
| 1777463481 | 12.78° C | 97% | 1000.1 hPa | 0 mm | - | 15 W/m² | - |
| 1777463177 | 12.78° C | 97% | 999.8 hPa | 0 mm | - | 12 W/m² | - |
| 1777462873 | 13.33° C | 97% | 1000.1 hPa | 0 mm | - | 13 W/m² | - |
| 1777462569 | 12.78° C | 97% | 999.8 hPa | 0 mm | - | 15 W/m² | - |
| 1777462265 | 12.78° C | 97% | 999.8 hPa | 0 mm | - | 11 W/m² | - |
| 1777461955 | 12.78° C | 97% | 999.8 hPa | 0 mm | - | 28 W/m² | - |
* Rain latest hour (hover to see other rain measurements)
** Current wind speed in m/s (hover to see current wind gust speed)